Bergplaas, South Africa

8:01 PM SAST on May 28, 2017 (GMT +0200)
Bergplaas

Weather History for 68828 - November, 2012

Change the Weather History Date:

Monday, November 5, 2012

  Actual Average Record
Temperature  
Mean Temperature 62 °F -  
Max Temperature 66 °F 70 °F - ()
Min Temperature 57 °F 54 °F - ()
Degree Days  
Heating Degree Days 3    
Growing Degree Days 12 (Base 50)    
Moisture  
Dew Point 56 °F    
Average Humidity 84    
Maximum Humidity 94    
Minimum Humidity 69    
Precipitation  
Precipitation 0.00 in - - ()
Sea Level Pressure  
Sea Level Pressure 29.97 in    
Wind  
Wind Speed 4 mph ()    
Max Wind Speed 8 mph    
Max Gust Speed -    
Visibility 6.8 miles    
Events      
T = Trace of Precipitation, MM = Missing Value Source: Averaged Metar Reports

Daily Weather History Graph

Daily Weather History Graph

Search for Another Location

Airport or City:

Trip Planner

Search our weather history database for the weather conditions in past years. The results will help you decide how hot, cold, wet, or windy it might be!

Date:

Astronomy

Nov. 05, 2012 Rise Set
Actual Time 5:25 AM SAST 7:02 PM SAST
Civil Twilight 4:59 AM SAST 7:29 PM SAST
Nautical Twilight 4:26 AM SAST 8:02 PM SAST
Astronomical Twilight 3:52 AM SAST 8:36 PM SAST
Moon No Moon Rise 10:24 AM SAST (11/5)
Length of Visible Light 14h 30m
Length of Day
13h 36m
Waning Gibbous, 66% of the Moon is Illuminated
Nov 5
Waning Gibbous
Nov 7
Last Quarter
Nov 14
New
Nov 20
First Quarter
Nov 28
Full

Hourly Weather History & Observations

Time (SAST) Temp. Dew Point Humidity Pressure Visibility Wind Dir Wind Speed Gust Speed Precip Events Conditions
12:00 AM 59.0 °F 57.2 °F 94% 30.01 in 4.3 mi SW 5.8 mph - N/A   Overcast
1:00 AM 59.0 °F 57.2 °F 94% 30.01 in 3.7 mi SSW 5.8 mph - N/A   Overcast
2:00 AM 59 °F 56 °F 88% 29.98 in 2 mi 1.2 mph - -  
2:00 AM 59.0 °F 57.2 °F 94% 29.98 in - Variable 1.2 mph - N/A   Overcast
3:00 AM 59.0 °F 57.2 °F 94% 29.95 in 3.7 mi West 1.2 mph - N/A   Overcast
4:00 AM 59.0 °F 57.2 °F 94% 29.95 in 4.3 mi Variable 1.2 mph - N/A   Overcast
5:00 AM 59 °F 56 °F 85% 29.95 in 12 mi 1.2 mph - -   Mostly Cloudy
5:00 AM 59.0 °F 55.4 °F 88% 29.95 in 6.2 mi Variable 1.2 mph - N/A   Mostly Cloudy
6:00 AM 59.0 °F 55.4 °F 88% 29.95 in 6.2 mi Variable 2.3 mph - N/A   Overcast
7:00 AM 59.0 °F 55.4 °F 88% 29.95 in 6.2 mi NE 4.6 mph - N/A   Overcast
8:00 AM 60 °F 55 °F 80% 29.98 in 12 mi ENE 3.5 mph - -   Overcast
8:00 AM 60.8 °F 55.4 °F 82% 29.98 in 6.2 mi Variable 2.3 mph - N/A   Mostly Cloudy
9:00 AM 60.8 °F 55.4 °F 82% 29.98 in 6.2 mi ESE 3.5 mph - N/A   Mostly Cloudy
10:00 AM 60.8 °F 57.2 °F 88% 29.98 in 6.2 mi SSE 4.6 mph - N/A   Mostly Cloudy
11:00 AM 62 °F 57 °F 78% 29.97 in 12 mi SE 6.9 mph - -   Mostly Cloudy
11:00 AM 62.6 °F 57.2 °F 82% 29.95 in 6.2 mi ESE 6.9 mph - N/A   Mostly Cloudy
12:00 PM 64.4 °F 57.2 °F 77% 29.95 in 6.2 mi ESE 4.6 mph - N/A   Mostly Cloudy
1:00 PM 64.4 °F 57.2 °F 77% 29.95 in 6.2 mi SSE 8.1 mph - N/A   Mostly Cloudy
2:00 PM 64 °F 56 °F 69% 29.96 in 12 mi SSE 6.9 mph - -   Scattered Clouds
2:00 PM 64.4 °F 57.2 °F 77% 29.95 in 6.2 mi SSE 6.9 mph - N/A   Partly Cloudy
3:00 PM 64.4 °F 57.2 °F 77% 29.92 in 6.2 mi SSE 4.6 mph - N/A   Scattered Clouds
4:00 PM 64.4 °F 57.2 °F 77% 29.95 in 6.2 mi SSE 8.1 mph - N/A   Mostly Cloudy
5:00 PM 62 °F 56 °F 75% 29.98 in 12 mi South 8.1 mph - -   Mostly Cloudy
5:00 PM 62.6 °F 55.4 °F 77% 29.95 in 6.2 mi South 8.1 mph - N/A   Mostly Cloudy
6:00 PM 60.8 °F 55.4 °F 82% 29.98 in 6.2 mi South 4.6 mph - N/A   Mostly Cloudy
7:00 PM 60.8 °F 57.2 °F 88% 30.01 in 6.2 mi SW 3.5 mph - N/A   Mostly Cloudy
8:00 PM 59 °F 56 °F 85% 30.03 in 12 mi West 3.5 mph - -   Partly Cloudy
8:00 PM 59.0 °F 55.4 °F 88% 30.01 in 6.2 mi West 3.5 mph - N/A   Scattered Clouds
9:00 PM 59.0 °F 55.4 °F 88% 30.04 in 3.7 mi Variable 2.3 mph - N/A   Unknown
11:00 PM 57.2 °F 55.4 °F 94% 30.04 in 3.7 mi WNW 3.5 mph - N/A   Mostly Cloudy